sat.trackr.live / text

‹ back to catalog

STARLINK-34499

NORAD 64709 · 2025-142P

PAYLOAD ACTIVE UNKNOWN

§ Identity

Operator
Country
US
Launch date
2025-06-28
Launch site
AFWTR
Launch vehicle
Mass (kg)
RCS (m²)

Purposes: comms

External: N2YO · Heavens-Above · Gunter

§ Orbital elements

Epoch: 2026-09-20T11:31:22.925280Z

Period
94.14 min
Inclination
69.9988°
Eccentricity
0.0002685
Mean motion
15.29586721 rev/d
Perigee alt
475.2 km
Apogee alt
478.9 km
Semi-major
6,855.2 km
B*
3.6090e-4
RAAN
181.0992°
Arg perigee
281.4331°
Mean anomaly
78.6542°
Rev number
6,869

§ Raw data

STARLINK-344991 64709U 25142P   26263.48012645  .00010263  00000+0  36090-3 0  99912 64709  69.9988 181.0992 0002685 281.4331  78.6542 15.29586721 68697

JSON: /api/v1/satellites/64709 · /tle

For live sub-satellite position, see the globe view (requires WebGL).

§ Visibility from observer

Set your observer location to see the next 7 days of passes ≥ 10°. The values pass through the URL so the page stays shareable.

No JS? Fill the form by hand. The geolocation button needs JavaScript.